13-12-2022, 00:00:07,     42,    0.0,   -3.5,   0.00,   0.00, 1006.3,    0.3, -999.0
13-12-2022, 00:00:17,     42,    0.0,   -3.5,   0.00,   0.00, 1006.3,    0.1, -999.0
13-12-2022, 00:00:27,     43,    0.0,   -3.6,   0.00,   0.00, 1006.3,    0.0, -999.0
13-12-2022, 00:00:37,     43,    0.0,   -3.6,   0.00,   0.00, 1006.3,    0.0, -999.0
13-12-2022, 00:00:47,     43,    0.0,   -3.7,   0.00,   0.00, 1006.3,    0.0, -999.0
13-12-2022, 00:00:57,     43,    0.0,   -3.6,   0.00,   0.00, 1006.3,    0.1, -999.0
13-12-2022, 00:01:07,     42,    0.0,   -3.6,   0.00,   0.00, 1006.3,    0.1, -999.0
13-12-2022, 00:01:17,     42,    0.0,   -3.7,   0.00,   0.00, 1006.3,    0.0, -999.0
13-12-2022, 00:01:27,     43,    0.0,   -3.7,   0.00,   0.00, 1006.3,    0.0, -999.0
13-12-2022, 00:01:37,     43,    0.0,   -3.7,   0.00,   0.00, 1006.3,    0.1, -999.0
13-12-2022, 00:01:47,     42,    0.0,   -3.8,   0.00,   0.00, 1006.3,    0.1, -999.0
13-12-2022, 00:01:57,     43,    0.0,   -3.6,   0.00,   0.00, 1006.3,    0.1, -999.0
13-12-2022, 00:02:07,     43,    0.0,   -3.5,   0.00,   0.00, 1006.3,    0.0, -999.0
13-12-2022, 00:02:17,     43,    0.0,   -3.6,   0.00,   0.00, 1006.2,    0.1, -999.0
13-12-2022, 00:02:27,     42,    0.0,   -3.6,   0.00,   0.00, 1006.3,    0.1, -999.0
13-12-2022, 00:02:37,     42,    0.0,   -3.7,   0.00,   0.00, 1006.3,    0.1, -999.0
13-12-2022, 00:02:47,     42,    0.0,   -3.6,   0.00,   0.00, 1006.3,    0.1, -999.0
13-12-2022, 00:02:57,     42,    0.0,   -3.6,   0.00,   0.00, 1006.3,    0.1, -999.0
13-12-2022, 00:03:07,     43,    0.0,   -3.6,   0.00,   0.00, 1006.3,    0.2, -999.0
13-12-2022, 00:03:16,     43,    0.0,   -3.7,   0.00,   0.00, 1006.3,    0.0, -999.0
13-12-2022, 00:03:27,     43,    0.0,   -3.7,   0.00,   0.00, 1006.3,    0.1, -999.0
13-12-2022, 00:03:37,     42,    0.0,   -3.6,   0.00,   0.00, 1006.3,    0.1, -999.0
13-12-2022, 00:03:47,     42,    0.0,   -3.6,   0.00,   0.00, 1006.3,    0.1, -999.0
13-12-2022, 00:03:56,     43,    0.0,   -3.7,   0.00,   0.00, 1006.3,    0.2, -999.0
13-12-2022, 00:04:07,     42,    0.0,   -3.6,   0.00,   0.00, 1006.3,    0.1, -999.0
13-12-2022, 00:04:17,     43,    0.0,   -3.6,   0.00,   0.00, 1006.3,    0.0, -999.0
13-12-2022, 00:04:26,     43,    0.0,   -3.7,   0.00,   0.00, 1006.3,    0.1, -999.0
13-12-2022, 00:04:36,     43,    0.0,   -3.6,   0.00,   0.00, 1006.3,    0.1, -999.0
13-12-2022, 00:04:47,     42,    0.0,   -3.6,   0.00,   0.00, 1006.3,    0.2, -999.0
13-12-2022, 00:04:57,     42,    0.0,   -3.9,   0.00,   0.00, 1006.3,    0.1, -999.0
13-12-2022, 00:05:06,     43,    0.0,   -3.7,   0.00,   0.00, 1006.3,    0.2, -999.0
13-12-2022, 00:05:17,     43,    0.0,   -3.8,   0.00,   0.00, 1006.3,    0.1, -999.0
13-12-2022, 00:05:27,     43,    0.0,   -3.7,   0.00,   0.00, 1006.3,    0.2, -999.0
13-12-2022, 00:05:36,     43,    0.0,   -3.6,   0.00,   0.00, 1006.3,    0.1, -999.0
13-12-2022, 00:05:46,     42,    0.0,   -3.7,   0.00,   0.00, 1006.3,    0.1, -999.0
13-12-2022, 00:05:57,     42,    0.0,   -3.7,   0.00,   0.00, 1006.3,    0.0, -999.0
13-12-2022, 00:06:06,     42,    0.0,   -3.7,   0.00,   0.00, 1006.3,    0.2, -999.0
13-12-2022, 00:06:16,     43,    0.0,   -3.7,   0.00,   0.00, 1006.3,    0.2, -999.0
13-12-2022, 00:06:26,     42,    0.0,   -3.7,   0.00,   0.00, 1006.3,    0.1, -999.0
13-12-2022, 00:06:37,     42,    0.0,   -3.7,   0.00,   0.00, 1006.3,    0.1, -999.0
13-12-2022, 00:06:46,     43,    0.0,   -3.8,   0.00,   0.00, 1006.3,    0.1, -999.0
13-12-2022, 00:06:56,     43,    0.0,   -3.8,   0.00,   0.00, 1006.3,    0.1, -999.0
13-12-2022, 00:07:06,     43,    0.0,   -3.8,   0.00,   0.00, 1006.3,    0.1, -999.0
13-12-2022, 00:07:16,     43,    0.0,   -3.8,   0.00,   0.00, 1006.3,    0.0, -999.0
13-12-2022, 00:07:26,     42,    0.0,   -3.8,   0.00,   0.00, 1006.3,    0.1, -999.0
13-12-2022, 00:07:36,     42,    0.0,   -3.8,   0.00,   0.00, 1006.3,    0.0, -999.0
13-12-2022, 00:07:46,     43,    0.0,   -3.9,   0.00,   0.00, 1006.3,    0.1, -999.0
13-12-2022, 00:07:56,     43,    0.0,   -3.8,   0.00,   0.00, 1006.3,    0.1, -999.0
13-12-2022, 00:08:06,     43,    0.0,   -3.9,   0.00,   0.00, 1006.3,    0.1, -999.0
13-12-2022, 00:08:16,     43,    0.0,   -3.9,   0.00,   0.00, 1006.3,    0.1, -999.0
13-12-2022, 00:08:26,     43,    0.0,   -3.9,   0.00,   0.00, 1006.3,    0.2, -999.0
13-12-2022, 00:08:36,     43,    0.0,   -3.9,   0.00,   0.00, 1006.3,    0.1, -999.0
13-12-2022, 00:08:46,     43,    0.0,   -3.8,   0.00,   0.00, 1006.3,    0.1, -999.0
13-12-2022, 00:08:56,     43,    0.0,   -3.9,   0.00,   0.00, 1006.3,    0.1, -999.0
13-12-2022, 00:09:06,     42,    0.0,   -3.9,   0.00,   0.00, 1006.3,    0.1, -999.0
13-12-2022, 00:09:16,     43,    0.0,   -3.9,   0.00,   0.00, 1006.3,    0.0, -999.0
13-12-2022, 00:09:26,     43,    0.0,   -3.8,   0.00,   0.00, 1006.3,    0.0, -999.0
13-12-2022, 00:09:36,     43,    0.0,   -3.9,   0.00,   0.00, 1006.3,    0.1, -999.0
13-12-2022, 00:09:46,     43,    0.0,   -3.9,   0.00,   0.00, 1006.3,    0.0, -999.0
13-12-2022, 00:09:56,     42,    0.0,   -3.8,   0.00,   0.00, 1006.3,    0.2, -999.0
13-12-2022, 00:10:06,     43,    0.0,   -3.8,   0.00,   0.00, 1006.3,    0.1, -999.0
13-12-2022, 00:10:16,     43,    0.0,   -3.8,   0.00,   0.00, 1006.3,    0.1, -999.0
13-12-2022, 00:10:26,     42,    0.0,   -3.8,   0.00,   0.00, 1006.3,    0.1, -999.0
13-12-2022, 00:10:36,     43,    0.0,   -3.8,   0.00,   0.00, 1006.3,    0.0, -999.0
13-12-2022, 00:10:46,     43,    0.0,   -3.9,   0.00,   0.00, 1006.3,    0.0, -999.0
13-12-2022, 00:10:56,     43,    0.0,   -3.8,   0.00,   0.00, 1006.3,    0.0, -999.0
13-12-2022, 00:11:06,     42,    0.0,   -3.7,   0.00,   0.00, 1006.3,    0.1, -999.0
13-12-2022, 00:11:16,     42,    0.0,   -3.8,   0.00,   0.00, 1006.3,    0.1, -999.0
13-12-2022, 00:11:26,     42,    0.0,   -3.8,   0.00,   0.00, 1006.3,    0.2, -999.0
13-12-2022, 00:11:36,     42,    0.0,   -3.8,   0.00,   0.00, 1006.3,    0.2, -999.0
13-12-2022, 00:11:46,     43,    0.0,   -3.8,   0.00,   0.00, 1006.3,    0.1, -999.0
13-12-2022, 00:11:56,     42,    0.0,   -3.8,   0.00,   0.00, 1006.3,    0.1, -999.0
13-12-2022, 00:12:06,     43,    0.0,   -3.8,   0.00,   0.00, 1006.3,    0.0, -999.0
13-12-2022, 00:12:16,     43,    0.0,   -3.9,   0.00,   0.00, 1006.3,    0.1, -999.0
13-12-2022, 00:12:26,     43,    0.0,   -3.8,   0.00,   0.00, 1006.3,    0.1, -999.0
13-12-2022, 00:12:36,     42,    0.0,   -3.8,   0.00,   0.00, 1006.3,    0.0, -999.0
13-12-2022, 00:12:46,     43,    0.0,   -3.8,   0.00,   0.00, 1006.3,    0.1, -999.0
13-12-2022, 00:12:55,     43,    0.0,   -3.7,   0.00,   0.00, 1006.3,    0.0, -999.0
13-12-2022, 00:13:06,     43,    0.0,   -3.8,   0.00,   0.00, 1006.3,    0.1, -999.0
13-12-2022, 00:13:16,     43,    0.0,   -3.8,   0.00,   0.00, 1006.3,    0.1, -999.0
13-12-2022, 00:13:26,     42,    0.0,   -3.8,   0.00,   0.00, 1006.3,    0.1, -999.0
13-12-2022, 00:13:36,     42,    0.0,   -3.7,   0.00,   0.00, 1006.3,    0.1, -999.0
13-12-2022, 00:13:46,     42,    0.0,   -3.7,   0.00,   0.00, 1006.3,    0.0, -999.0
13-12-2022, 00:13:56,     42,    0.0,   -3.7,   0.00,   0.00, 1006.3,    0.2, -999.0
13-12-2022, 00:14:05,     42,    0.0,   -3.7,   0.00,   0.00, 1006.3,    0.0, -999.0
13-12-2022, 00:14:16,     43,    0.0,   -3.7,   0.00,   0.00, 1006.3,    0.2, -999.0
13-12-2022, 00:14:26,     43,    0.0,   -3.7,   0.00,   0.00, 1006.3,    0.2, -999.0
13-12-2022, 00:14:36,     43,    0.0,   -3.7,   0.00,   0.00, 1006.3,    0.2, -999.0
13-12-2022, 00:14:45,     42,    0.0,   -3.7,   0.00,   0.00, 1006.3,    0.2, -999.0
13-12-2022, 00:14:56,     42,    0.0,   -3.8,   0.00,   0.00, 1006.3,    0.1, -999.0
13-12-2022, 00:15:06,     43,    0.0,   -3.8,   0.00,   0.00, 1006.3,    0.1, -999.0
13-12-2022, 00:15:15,     43,    0.0,   -3.8,   0.00,   0.00, 1006.3,    0.1, -999.0
13-12-2022, 00:15:25,     43,    0.0,   -3.7,   0.00,   0.00, 1006.3,    0.1, -999.0
13-12-2022, 00:15:36,     42,    0.0,   -3.6,   0.00,   0.00, 1006.3,    0.1, -999.0
13-12-2022, 00:15:45,     43,    0.0,   -3.7,   0.00,   0.00, 1006.3,    0.0, -999.0
13-12-2022, 00:15:55,     43,    0.0,   -3.7,   0.00,   0.00, 1006.3,    0.1, -999.0
13-12-2022, 00:16:05,     42,    0.0,   -3.7,   0.00,   0.00, 1006.3,    0.1, -999.0
13-12-2022, 00:16:16,     42,    0.0,   -3.7,   0.00,   0.00, 1006.3,    0.0, -999.0
13-12-2022, 00:16:25,     43,    0.0,   -3.7,   0.00,   0.00, 1006.3,    0.1, -999.0
13-12-2022, 00:16:35,     43,    0.0,   -3.8,   0.00,   0.00, 1006.3,    0.1, -999.0
13-12-2022, 00:16:46,     43,    0.0,   -3.8,   0.00,   0.00, 1006.3,    0.1, -999.0
13-12-2022, 00:16:55,     43,    0.0,   -3.7,   0.00,   0.00, 1006.3,    0.1, -999.0
13-12-2022, 00:17:05,     43,    0.0,   -3.7,   0.00,   0.00, 1006.3,    0.2, -999.0
13-12-2022, 00:17:15,     42,    0.0,   -3.8,   0.00,   0.00, 1006.3,    0.1, -999.0
13-12-2022, 00:17:25,     43,    0.0,   -3.8,   0.00,   0.00, 1006.3,    0.1, -999.0
13-12-2022, 00:17:35,     43,    0.0,   -3.8,   0.00,   0.00, 1006.3,    0.2, -999.0
13-12-2022, 00:17:45,     43,    0.0,   -3.7,   0.00,   0.00, 1006.3,    0.1, -999.0
13-12-2022, 00:17:55,     43,    0.0,   -3.7,   0.00,   0.00, 1006.3,    0.1, -999.0
13-12-2022, 00:18:05,     42,    0.0,   -3.8,   0.00,   0.00, 1006.3,    0.0, -999.0
13-12-2022, 00:18:15,     43,    0.0,   -3.7,   0.00,   0.00, 1006.3,    0.1, -999.0
13-12-2022, 00:18:25,     42,    0.0,   -3.7,   0.00,   0.00, 1006.3,    0.1, -999.0
13-12-2022, 00:18:35,     43,    0.0,   -3.8,   0.00,   0.00, 1006.3,    0.1, -999.0
13-12-2022, 00:18:45,     42,    0.0,   -3.7,   0.00,   0.00, 1006.3,    0.1, -999.0
13-12-2022, 00:18:55,     43,    0.0,   -3.7,   0.00,   0.00, 1006.3,    0.1, -999.0
13-12-2022, 00:19:05,     43,    0.0,   -3.8,   0.00,   0.00, 1006.3,    0.1, -999.0
13-12-2022, 00:19:15,     42,    0.0,   -3.8,   0.00,   0.00, 1006.3,    0.1, -999.0
13-12-2022, 00:19:25,     43,    0.0,   -3.9,   0.00,   0.00, 1006.3,    0.1, -999.0
13-12-2022, 00:19:35,     43,    0.0,   -3.8,   0.00,   0.00, 1006.3,    0.2, -999.0
13-12-2022, 00:19:46,     43,    0.0,   -3.8,   0.00,   0.00, 1006.3,    0.1, -999.0
13-12-2022, 00:19:55,     43,    0.0,   -3.8,   0.00,   0.00, 1006.3,    0.0, -999.0
13-12-2022, 00:20:05,     43,    0.0,   -3.9,   0.00,   0.00, 1006.3,    0.1, -999.0
13-12-2022, 00:20:15,     42,    0.0,   -3.8,   0.00,   0.00, 1006.3,    0.1, -999.0
13-12-2022, 00:20:25,     44,    0.0,   -3.8,   0.00,   0.00, 1006.3,    0.1, -999.0
13-12-2022, 00:20:35,     42,    0.0,   -3.7,   0.00,   0.00, 1006.3,    0.1, -999.0
13-12-2022, 00:20:45,     43,    0.0,   -3.8,   0.00,   0.00, 1006.3,    0.2, -999.0
13-12-2022, 00:20:55,     42,    0.0,   -3.9,   0.00,   0.00, 1006.3,    0.2, -999.0
13-12-2022, 00:21:05,     42,    0.0,   -3.7,   0.00,   0.00, 1006.3,    0.0, -999.0
13-12-2022, 00:21:15,     43,    0.0,   -3.6,   0.00,   0.00, 1006.3,    0.1, -999.0
13-12-2022, 00:21:25,     43,    0.0,   -3.6,   0.00,   0.00, 1006.3,    0.0, -999.0
13-12-2022, 00:21:35,     43,    0.0,   -3.6,   0.00,   0.00, 1006.3,    0.0, -999.0
13-12-2022, 00:21:45,     43,    0.0,   -3.7,   0.00,   0.00, 1006.3,    0.0, -999.0
13-12-2022, 00:21:55,     43,    0.0,   -3.7,   0.00,   0.00, 1006.3,    0.1, -999.0
13-12-2022, 00:22:05,     43,    0.0,   -3.8,   0.00,   0.00, 1006.3,    0.1, -999.0
13-12-2022, 00:22:15,     42,    0.0,   -3.8,   0.00,   0.00, 1006.3,    0.1, -999.0
13-12-2022, 00:22:25,     43,    0.0,   -3.8,   0.00,   0.00, 1006.3,    0.0, -999.0
13-12-2022, 00:22:35,     43,    0.0,   -3.7,   0.00,   0.00, 1006.3,    0.2, -999.0
13-12-2022, 00:22:45,     43,    0.0,   -3.8,   0.00,   0.00, 1006.3,    0.1, -999.0
13-12-2022, 00:22:55,     43,    0.0,   -3.8,   0.00,   0.00, 1006.3,    0.1, -999.0
13-12-2022, 00:23:04,     42,    0.0,   -3.8,   0.00,   0.00, 1006.4,    0.0, -999.0
13-12-2022, 00:23:15,     43,    0.0,   -3.8,   0.00,   0.00, 1006.3,    0.0, -999.0
13-12-2022, 00:23:25,     42,    0.0,   -3.8,   0.00,   0.00, 1006.3,    0.2, -999.0
13-12-2022, 00:23:35,     42,    0.0,   -3.8,   0.00,   0.00, 1006.3,    0.0, -999.0
13-12-2022, 00:23:44,     42,    0.0,   -3.8,   0.00,   0.00, 1006.3,    0.2, -999.0
13-12-2022, 00:23:55,     43,    0.0,   -3.8,   0.00,   0.00, 1006.3,    0.2, -999.0
13-12-2022, 00:24:05,     42,    0.0,   -3.8,   0.00,   0.00, 1006.3,    0.0, -999.0
13-12-2022, 00:24:14,     42,    0.0,   -3.8,   0.00,   0.00, 1006.3,    0.2, -999.0
13-12-2022, 00:24:24,     43,    0.0,   -3.8,   0.00,   0.00, 1006.3,    0.1, -999.0
13-12-2022, 00:24:35,     42,    0.0,   -3.8,   0.00,   0.00, 1006.3,    0.2, -999.0
13-12-2022, 00:24:45,     43,    0.0,   -3.7,   0.00,   0.00, 1006.3,    0.0, -999.0
13-12-2022, 00:24:54,     43,    0.0,   -3.7,   0.00,   0.00, 1006.3,    0.0, -999.0
13-12-2022, 00:25:05,     43,    0.0,   -3.9,   0.00,   0.00, 1006.3,    0.0, -999.0
13-12-2022, 00:25:15,     42,    0.0,   -3.8,   0.00,   0.00, 1006.3,    0.1, -999.0
13-12-2022, 00:25:24,     43,    0.0,   -3.6,   0.00,   0.00, 1006.3,    0.2, -999.0
13-12-2022, 00:25:34,     43,    0.0,   -3.7,   0.00,   0.00, 1006.3,    0.0, -999.0
13-12-2022, 00:25:44,     42,    0.0,   -3.8,   0.00,   0.00, 1006.3,    0.1, -999.0
13-12-2022, 00:25:55,     42,    0.0,   -3.8,   0.00,   0.00, 1006.3,    0.1, -999.0
13-12-2022, 00:26:04,     43,    0.0,   -3.8,   0.00,   0.00, 1006.3,    0.0, -999.0
13-12-2022, 00:26:14,     43,    0.0,   -3.7,   0.00,   0.00, 1006.3,    0.2, -999.0
13-12-2022, 00:26:25,     42,    0.0,   -3.7,   0.00,   0.00, 1006.3,    0.1, -999.0
13-12-2022, 00:26:34,     43,    0.0,   -3.6,   0.00,   0.00, 1006.3,    0.0, -999.0
13-12-2022, 00:26:44,     43,    0.0,   -3.6,   0.00,   0.00, 1006.3,    0.0, -999.0
13-12-2022, 00:26:54,     43,    0.0,   -3.6,   0.00,   0.00, 1006.3,    0.1, -999.0
13-12-2022, 00:27:05,     42,    0.0,   -3.6,   0.00,   0.00, 1006.3,    0.1, -999.0
13-12-2022, 00:27:14,     43,    0.0,   -3.7,   0.00,   0.00, 1006.3,    0.1, -999.0
13-12-2022, 00:27:24,     43,    0.0,   -3.7,   0.00,   0.00, 1006.3,    0.1, -999.0
13-12-2022, 00:27:34,     43,    0.0,   -3.9,   0.00,   0.00, 1006.3,    0.0, -999.0
13-12-2022, 00:27:44,     43,    0.0,   -3.8,   0.00,   0.00, 1006.3,    0.2, -999.0
13-12-2022, 00:27:54,     43,    0.0,   -3.8,   0.00,   0.00, 1006.3,    0.1, -999.0
13-12-2022, 00:28:04,     43,    0.0,   -3.8,   0.00,   0.00, 1006.3,    0.1, -999.0
13-12-2022, 00:28:14,     43,    0.0,   -3.8,   0.00,   0.00, 1006.3,    0.1, -999.0
13-12-2022, 00:28:24,     43,    0.0,   -3.8,   0.00,   0.00, 1006.3,    0.1, -999.0
13-12-2022, 00:28:34,     43,    0.0,   -3.8,   0.00,   0.00, 1006.3,    0.1, -999.0
13-12-2022, 00:28:44,     43,    0.0,   -3.8,   0.00,   0.00, 1006.3,    0.0, -999.0
13-12-2022, 00:28:54,     43,    0.0,   -3.8,   0.00,   0.00, 1006.3,    0.1, -999.0
13-12-2022, 00:29:04,     43,    0.0,   -3.9,   0.00,   0.00, 1006.3,    0.1, -999.0
13-12-2022, 00:29:14,     42,    0.0,   -3.9,   0.00,   0.00, 1006.3,    0.0, -999.0
13-12-2022, 00:29:24,     43,    0.0,   -3.9,   0.00,   0.00, 1006.3,    0.2, -999.0
13-12-2022, 00:29:34,     43,    0.0,   -4.0,   0.00,   0.00, 1006.3,    0.2, -999.0
13-12-2022, 00:29:44,     42,    0.0,   -4.0,   0.00,   0.00, 1006.3,    0.0, -999.0
13-12-2022, 00:29:54,     42,    0.0,   -4.0,   0.00,   0.00, 1006.2,    0.1, -999.0
13-12-2022, 00:30:04,     42,    0.0,   -3.9,   0.00,   0.00, 1006.3,    0.1, -999.0
13-12-2022, 00:30:14,     43,    0.0,   -4.0,   0.00,   0.00, 1006.3,    0.1, -999.0
13-12-2022, 00:30:24,     43,    0.0,   -3.9,   0.00,   0.00, 1006.3,    0.1, -999.0
13-12-2022, 00:30:34,     42,    0.0,   -4.0,   0.00,   0.00, 1006.3,    0.1, -999.0
13-12-2022, 00:30:44,     43,    0.0,   -3.9,   0.00,   0.00, 1006.3,    0.1, -999.0
13-12-2022, 00:30:54,     42,    0.0,   -3.9,   0.00,   0.00, 1006.2,    0.0, -999.0
13-12-2022, 00:31:04,     42,    0.0,   -3.9,   0.00,   0.00, 1006.2,    0.1, -999.0
13-12-2022, 00:31:14,     43,    0.0,   -4.0,   0.00,   0.00, 1006.2,    0.1, -999.0
13-12-2022, 00:31:24,     43,    0.0,   -4.0,   0.00,   0.00, 1006.3,    0.1, -999.0
13-12-2022, 00:31:34,     43,    0.0,   -4.0,   0.00,   0.00, 1006.2,    0.1, -999.0
13-12-2022, 00:31:44,     43,    0.0,   -4.0,   0.00,   0.00, 1006.3,    0.1, -999.0
13-12-2022, 00:31:54,     43,    0.0,   -4.0,   0.00,   0.00, 1006.2,    0.1, -999.0
13-12-2022, 00:32:04,     43,    0.0,   -4.0,   0.00,   0.00, 1006.3,    0.1, -999.0
13-12-2022, 00:32:14,     43,    0.0,   -4.0,   0.00,   0.00, 1006.3,    0.0, -999.0
13-12-2022, 00:32:24,     43,    0.0,   -4.0,   0.00,   0.00, 1006.2,    0.0, -999.0
13-12-2022, 00:32:34,     43,    0.0,   -3.9,   0.00,   0.00, 1006.2,    0.1, -999.0
13-12-2022, 00:32:43,     43,    0.0,   -3.9,   0.00,   0.00, 1006.3,    0.1, -999.0
13-12-2022, 00:32:54,     42,    0.0,   -3.9,   0.00,   0.00, 1006.2,    0.2, -999.0
13-12-2022, 00:33:04,     42,    0.0,   -4.0,   0.00,   0.00, 1006.2,    0.0, -999.0
13-12-2022, 00:33:14,     43,    0.0,   -4.0,   0.00,   0.00, 1006.2,    0.1, -999.0
13-12-2022, 00:33:23,     42,    0.0,   -3.9,   0.00,   0.00, 1006.2,    0.1, -999.0
13-12-2022, 00:33:34,     43,    0.0,   -4.0,   0.00,   0.00, 1006.2,    0.0, -999.0
13-12-2022, 00:33:44,     42,    0.0,   -4.0,   0.00,   0.00, 1006.2,    0.0, -999.0
13-12-2022, 00:33:53,     43,    0.0,   -4.0,   0.00,   0.00, 1006.2,    0.1, -999.0
13-12-2022, 00:34:04,     43,    0.0,   -4.0,   0.00,   0.00, 1006.2,    0.2, -999.0
13-12-2022, 00:34:14,     43,    0.0,   -4.0,   0.00,   0.00, 1006.2,    0.0, -999.0
13-12-2022, 00:34:23,     43,    0.0,   -4.0,   0.00,   0.00, 1006.2,    0.0, -999.0
13-12-2022, 00:34:33,     43,    0.0,   -4.0,   0.00,   0.00, 1006.2,    0.0, -999.0
13-12-2022, 00:34:44,     43,    0.0,   -4.1,   0.00,   0.00, 1006.2,    0.1, -999.0
13-12-2022, 00:34:54,     42,    0.0,   -4.1,   0.00,   0.00, 1006.2,    0.0, -999.0
13-12-2022, 00:35:03,     43,    0.0,   -4.1,   0.00,   0.00, 1006.2,    0.2, -999.0
13-12-2022, 00:35:13,     43,    0.0,   -4.0,   0.00,   0.00, 1006.2,    0.1, -999.0
13-12-2022, 00:35:24,     43,    0.0,   -4.0,   0.00,   0.00, 1006.2,    0.2, -999.0
13-12-2022, 00:35:33,     42,    0.0,   -3.9,   0.00,   0.00, 1006.2,    0.0, -999.0
13-12-2022, 00:35:43,     43,    0.0,   -3.9,   0.00,   0.00, 1006.1,    0.0, -999.0
13-12-2022, 00:35:53,     43,    0.0,   -3.9,   0.00,   0.00, 1006.2,    0.0, -999.0
13-12-2022, 00:36:04,     43,    0.0,   -4.0,   0.00,   0.00, 1006.1,    0.1, -999.0
13-12-2022, 00:36:13,     42,    0.0,   -4.0,   0.00,   0.00, 1006.1,    0.1, -999.0
13-12-2022, 00:36:23,     42,    0.0,   -4.0,   0.00,   0.00, 1006.1,    0.1, -999.0
13-12-2022, 00:36:33,     42,    0.0,   -4.0,   0.00,   0.00, 1006.1,    0.1, -999.0
13-12-2022, 00:36:43,     42,    0.0,   -4.1,   0.00,   0.00, 1006.1,    0.0, -999.0
13-12-2022, 00:36:53,     43,    0.0,   -4.1,   0.00,   0.00, 1006.1,    0.1, -999.0
13-12-2022, 00:37:03,     43,    0.0,   -4.0,   0.00,   0.00, 1006.1,    0.0, -999.0
13-12-2022, 00:37:13,     43,    0.0,   -4.0,   0.00,   0.00, 1006.1,    0.1, -999.0
13-12-2022, 00:37:23,     43,    0.0,   -4.0,   0.00,   0.00, 1006.1,    0.1, -999.0
13-12-2022, 00:37:33,     42,    0.0,   -4.0,   0.00,   0.00, 1006.1,    0.1, -999.0
13-12-2022, 00:37:43,     43,    0.0,   -4.0,   0.00,   0.00, 1006.1,    0.0, -999.0
13-12-2022, 00:37:53,     43,    0.0,   -4.0,   0.00,   0.00, 1006.1,    0.1, -999.0
13-12-2022, 00:38:03,     43,    0.0,   -4.0,   0.00,   0.00, 1006.1,    0.3, -999.0
13-12-2022, 00:38:13,     43,    0.0,   -4.1,   0.00,   0.00, 1006.1,    0.1, -999.0
13-12-2022, 00:38:23,     43,    0.0,   -4.0,   0.00,   0.00, 1006.1,    0.1, -999.0
13-12-2022, 00:38:33,     42,    0.0,   -4.0,   0.00,   0.00, 1006.1,    0.1, -999.0
13-12-2022, 00:38:43,     43,    0.0,   -3.9,   0.00,   0.00, 1006.1,    0.1, -999.0
13-12-2022, 00:38:53,     42,    0.0,   -4.0,   0.00,   0.00, 1006.1,    0.1, -999.0
13-12-2022, 00:39:03,     43,    0.0,   -4.0,   0.00,   0.00, 1006.1,    0.1, -999.0
13-12-2022, 00:39:13,     43,    0.0,   -4.0,   0.00,   0.00, 1006.1,    0.1, -999.0
13-12-2022, 00:39:23,     43,    0.0,   -4.0,   0.00,   0.00, 1006.1,    0.1, -999.0
13-12-2022, 00:39:33,     43,    0.0,   -3.9,   0.00,   0.00, 1006.1,    0.0, -999.0
13-12-2022, 00:39:43,     43,    0.0,   -4.1,   0.00,   0.00, 1006.1,    0.1, -999.0
13-12-2022, 00:39:53,     43,    0.0,   -4.0,   0.00,   0.00, 1006.1,    0.0, -999.0
13-12-2022, 00:40:03,     43,    0.0,   -4.1,   0.00,   0.00, 1006.1,    0.0, -999.0
13-12-2022, 00:40:13,     43,    0.0,   -4.1,   0.00,   0.00, 1006.1,    0.1, -999.0
13-12-2022, 00:40:23,     43,    0.0,   -4.1,   0.00,   0.00, 1006.1,    0.1, -999.0
13-12-2022, 00:40:33,     43,    0.0,   -4.1,   0.00,   0.00, 1006.1,    0.2, -999.0
13-12-2022, 00:40:43,     42,    0.0,   -4.0,   0.00,   0.00, 1006.1,    0.0, -999.0
13-12-2022, 00:40:53,     42,    0.0,   -4.0,   0.00,   0.00, 1006.1,    0.2, -999.0
13-12-2022, 00:41:03,     43,    0.0,   -4.0,   0.00,   0.00, 1006.1,    0.1, -999.0
13-12-2022, 00:41:13,     43,    0.0,   -4.1,   0.00,   0.00, 1006.1,    0.1, -999.0
13-12-2022, 00:41:23,     43,    0.0,   -4.0,   0.00,   0.00, 1006.1,    0.1, -999.0
13-12-2022, 00:41:33,     42,    0.0,   -4.0,   0.00,   0.00, 1006.1,    0.1, -999.0
13-12-2022, 00:41:43,     43,    0.0,   -4.0,   0.00,   0.00, 1006.1,    0.0, -999.0
13-12-2022, 00:41:53,     42,    0.0,   -4.1,   0.00,   0.00, 1006.1,    0.1, -999.0
13-12-2022, 00:42:03,     42,    0.0,   -4.1,   0.00,   0.00, 1006.1,    0.0, -999.0
13-12-2022, 00:42:13,     43,    0.0,   -4.1,   0.00,   0.00, 1006.1,    0.1, -999.0
13-12-2022, 00:42:23,     42,    0.0,   -4.1,   0.00,   0.00, 1006.1,    0.1, -999.0
13-12-2022, 00:42:33,     42,    0.0,   -4.1,   0.00,   0.00, 1006.1,    0.1, -999.0
13-12-2022, 00:42:43,     43,    0.0,   -4.1,   0.00,   0.00, 1006.1,    0.1, -999.0
13-12-2022, 00:42:53,     42,    0.0,   -4.1,   0.00,   0.00, 1006.1,    0.1, -999.0
13-12-2022, 00:43:02,     43,    0.0,   -4.2,   0.00,   0.00, 1006.1,    0.0, -999.0
13-12-2022, 00:43:13,     43,    0.0,   -4.1,   0.00,   0.00, 1006.1,    0.0, -999.0
13-12-2022, 00:43:23,     43,    0.0,   -4.0,   0.00,   0.00, 1006.0,    0.1, -999.0
13-12-2022, 00:43:32,     43,    0.0,   -4.1,   0.00,   0.00, 1006.1,    0.0, -999.0
13-12-2022, 00:43:43,     42,    0.0,   -4.1,   0.00,   0.00, 1006.1,    0.0, -999.0
13-12-2022, 00:43:53,     43,    0.0,   -4.1,   0.00,   0.00, 1006.1,    0.0, -999.0
13-12-2022, 00:44:03,     43,    0.0,   -4.2,   0.00,   0.00, 1006.0,    0.1, -999.0
13-12-2022, 00:44:12,     43,    0.0,   -4.1,   0.00,   0.00, 1006.0,    0.0, -999.0
13-12-2022, 00:44:23,     43,    0.0,   -4.1,   0.00,   0.00, 1006.0,    0.1, -999.0
13-12-2022, 00:44:33,     43,    0.0,   -3.9,   0.00,   0.00, 1006.0,    0.2, -999.0
13-12-2022, 00:44:42,     43,    0.0,   -3.9,   0.00,   0.00, 1006.1,    0.1, -999.0
13-12-2022, 00:44:52,     43,    0.0,   -3.9,   0.00,   0.00, 1006.0,    0.1, -999.0
13-12-2022, 00:45:03,     43,    0.0,   -4.0,   0.00,   0.00, 1006.0,    0.0, -999.0
13-12-2022, 00:45:13,     43,    0.0,   -4.0,   0.00,   0.00, 1006.0,    0.1, -999.0
13-12-2022, 00:45:22,     43,    0.0,   -4.0,   0.00,   0.00, 1006.0,    0.1, -999.0
13-12-2022, 00:45:32,     42,    0.0,   -4.0,   0.00,   0.00, 1006.0,    0.2, -999.0
13-12-2022, 00:45:43,     43,    0.0,   -4.0,   0.00,   0.00, 1006.0,    0.0, -999.0
13-12-2022, 00:45:52,     43,    0.0,   -4.1,   0.00,   0.00, 1006.0,    0.1, -999.0
13-12-2022, 00:46:02,     43,    0.0,   -4.1,   0.00,   0.00, 1006.0,    0.1, -999.0
13-12-2022, 00:46:12,     43,    0.0,   -4.0,   0.00,   0.00, 1006.0,    0.2, -999.0
13-12-2022, 00:46:22,     42,    0.0,   -4.1,   0.00,   0.00, 1006.0,    0.1, -999.0
13-12-2022, 00:46:32,     42,    0.0,   -4.1,   0.00,   0.00, 1006.0,    0.1, -999.0
13-12-2022, 00:46:42,     43,    0.0,   -4.1,   0.00,   0.00, 1006.0,    0.1, -999.0
13-12-2022, 00:46:52,     43,    0.0,   -4.1,   0.00,   0.00, 1006.0,    0.1, -999.0